Location: *
(46.1200°N, 11.2700°E)
Time: 11:29:15
(UTC+00:00)

Gbstr 26 Del rocket - Pass Details

Date: 02 March 2021
Orbit: 492 x 1264 km, 51.8° (Epoch: 17 April)

Event Time Altitude Azimuth Distance (km) Brightness Sun altitude
Rises 18:12:38 0° 269° (W) 2,766 8.5 -12.9°
Reaches altitude 10° 18:14:46 10° 275° (W) 1,949 7.1 -13.3°
Maximum altitude 18:19:05 48° 351° (N) 899 4.0 -14.0°
Enters shadow 18:23:06 16° 61° (ENE) 1,925 5.1 -14.7°
